Burlington, IA

7:51 AM CDT on March 29, 2017 (GMT -0500)
Burlington Regional

Weather History for KBRL - March, 2013

Change the Weather History Date:

Saturday, March 23, 2013

  Actual Average Record
Temperature  
Mean Temperature 40 °F 45 °F  
Max Temperature 49 °F 55 °F 88 °F (1910)
Min Temperature 30 °F 34 °F 8 °F (1960)
Degree Days  
Heating Degree Days 25 20  
Month to date heating degree days 747 580  
Since 1 July heating degree days 5118 4958  
Cooling Degree Days 0 0  
Month to date cooling degree days 0 0  
Year to date cooling degree days 0 0  
Moisture  
Dew Point 24 °F    
Average Humidity 63    
Maximum Humidity 92    
Minimum Humidity 34    
Precipitation  
Precipitation T in 0.09 in 0.35 in (2007)
Month to date precipitation 1.69 2.02  
Year to date precipitation 5.66 4.88  
Sea Level Pressure  
Sea Level Pressure 30.03 in    
Wind  
Wind Speed 10 mph (NE)    
Max Wind Speed 20 mph    
Max Gust Speed 26 mph    
Visibility 8 miles    
Events Fog , Snow    
T = Trace of Precipitation, MM = Missing Value Source: NWS Daily Summary

Daily Weather History Graph

Daily Weather History Graph

Search for Another Location

Airport or City:

Trip Planner

Search our weather history database for the weather conditions in past years. The results will help you decide how hot, cold, wet, or windy it might be!

Date:

Astronomy

Mar. 23, 2013 Rise Set
Actual Time 7:02 AM CDT 7:20 PM CDT
Civil Twilight 6:35 AM CDT 7:47 PM CDT
Nautical Twilight 6:03 AM CDT 8:19 PM CDT
Astronomical Twilight 5:30 AM CDT 8:52 PM CDT
Moon 3:46 PM CDT (3/23) 4:40 AM CDT (3/23)
Length of Visible Light 13h 12m
Length of Day
12h 17m
Waxing Gibbous, 85% of the Moon is Illuminated
Mar 23
Waxing Gibbous
Mar 27
Full
Apr 2
Last Quarter
Apr 10
New
Apr 18
First Quarter

Hourly Weather History & Observations

Time (CDT) Temp. Windchill Dew Point Humidity Pressure Visibility Wind Dir Wind Speed Gust Speed Precip Events Conditions
12:53 AM 35.1 °F 31.0 °F 21.9 °F 59% 30.07 in 10.0 mi NE 4.6 mph - N/A   Overcast
1:53 AM 35.1 °F 29.3 °F 21.9 °F 59% 30.06 in 10.0 mi NE 6.9 mph - N/A   Overcast
2:53 AM 34.0 °F 27.2 °F 23.0 °F 64% 30.06 in 10.0 mi NE 8.1 mph - N/A   Overcast
3:53 AM 34.0 °F 28.0 °F 23.0 °F 64% 30.06 in 10.0 mi NE 6.9 mph - N/A   Overcast
4:53 AM 33.1 °F 26.1 °F 23.0 °F 66% 30.05 in 10.0 mi ENE 8.1 mph - N/A   Overcast
5:53 AM 32.0 °F 28.7 °F 21.9 °F 66% 30.06 in 10.0 mi NE 3.5 mph - N/A   Overcast
6:53 AM 30.0 °F 22.4 °F 23.0 °F 75% 30.07 in 10.0 mi NNE 8.1 mph - N/A   Scattered Clouds
7:53 AM 32.0 °F 27.5 °F 24.1 °F 73% 30.10 in 10.0 mi NE 4.6 mph - N/A   Mostly Cloudy
8:53 AM 35.1 °F 29.3 °F 23.0 °F 61% 30.11 in 10.0 mi ENE 6.9 mph - N/A   Clear
9:53 AM 36.0 °F 30.3 °F 23.0 °F 59% 30.10 in 10.0 mi ENE 6.9 mph - N/A   Clear
10:53 AM 41.0 °F 34.7 °F 21.0 °F 45% 30.09 in 10.0 mi ENE 10.4 mph - N/A   Scattered Clouds
11:53 AM 44.1 °F 40.1 °F 21.9 °F 42% 30.09 in 10.0 mi NNE 6.9 mph - N/A   Clear
12:53 PM 44.1 °F 40.1 °F 21.9 °F 42% 30.09 in 10.0 mi East 6.9 mph - N/A   Partly Cloudy
1:53 PM 46.0 °F 43.9 °F 21.0 °F 37% 30.06 in 10.0 mi Variable 4.6 mph - N/A   Clear
2:53 PM 46.9 °F - 21.9 °F 37% 30.02 in 10.0 mi North 10.4 mph 16.1 mph N/A   Clear
3:53 PM 46.9 °F - 21.0 °F 36% 29.99 in 10.0 mi NNE 13.8 mph - N/A   Clear
4:53 PM 46.9 °F - 19.9 °F 34% 29.97 in 10.0 mi NE 10.4 mph - N/A   Clear
5:53 PM 45.0 °F 38.9 °F 19.9 °F 37% 29.96 in 10.0 mi NE 12.7 mph - N/A   Partly Cloudy
6:53 PM 43.0 °F 36.8 °F 21.9 °F 43% 29.98 in 10.0 mi NE 11.5 mph - N/A   Clear
7:53 PM 42.1 °F 34.9 °F 21.9 °F 45% 29.98 in 10.0 mi NE 13.8 mph 20.7 mph N/A   Mostly Cloudy
8:53 PM 39.9 °F 30.2 °F 24.1 °F 53% 29.99 in 10.0 mi NE 20.7 mph 26.5 mph N/A   Overcast
9:53 PM 37.9 °F 30.0 °F 23.0 °F 55% 30.01 in 10.0 mi ENE 12.7 mph 21.9 mph N/A   Overcast
10:10 PM 37.4 °F 28.9 °F 24.8 °F 60% 29.99 in 4.0 mi ENE 13.8 mph 24.2 mph 0.00 in Snow Light Snow
10:15 PM 35.6 °F 25.9 °F 26.6 °F 70% 29.99 in 1.8 mi ENE 16.1 mph 24.2 mph 0.00 in Snow Light Snow
10:21 PM 33.8 °F 23.9 °F 28.4 °F 81% 29.99 in 0.8 mi ENE 15.0 mph 23.0 mph 0.00 in Snow Light Snow
10:37 PM 33.8 °F 24.8 °F 30.2 °F 87% 30.00 in 0.8 mi ENE 12.7 mph 17.3 mph 0.00 in Snow Light Snow
10:53 PM 32.0 °F 22.5 °F 30.9 °F 96% 30.01 in 0.5 mi ENE 12.7 mph - 0.00 in Fog , Snow Snow
11:03 PM 32.0 °F 23.6 °F 30.2 °F 93% 29.99 in 0.5 mi NE 10.4 mph - 0.00 in Fog , Snow Snow
11:17 PM 32.0 °F 23.0 °F 30.2 °F 93% 29.99 in 0.8 mi NE 11.5 mph - 0.00 in Snow Light Snow
11:25 PM 32.0 °F 22.5 °F 30.2 °F 93% 29.99 in 1.0 mi NE 12.7 mph - 0.00 in Snow Light Snow
11:53 PM 32.0 °F 23.0 °F 30.0 °F 92% 30.01 in 2.0 mi NE 11.5 mph - 0.00 in Snow Light Snow